📊 Raw Sensor Data
Showing records 43826 to 43850 of 85,025 total
| ID | Distance (ft) | Battery V | Battery A | Int Temp (°F) | Int Humid (%) | Ext Temp (°F) | Solar V | RSSI | SNR | Time Stamp |
|---|---|---|---|---|---|---|---|---|---|---|
| 41212 | 15.2 | 3.88 | -5 | 46 | 42 | 48 | 0.00 | -69 | 8 | 05/21/2025 05:15 AM |
| 41211 | 15.2 | 3.88 | -5 | 46 | 42 | 48 | 0.00 | -68 | 8 | 05/21/2025 05:00 AM |
| 41210 | 15.2 | 3.88 | -5 | 46 | 42 | 48 | 0.00 | -69 | 8 | 05/21/2025 04:45 AM |
| 41209 | 15.2 | 3.88 | -5 | 46 | 42 | 48 | 0.00 | -68 | 8 | 05/21/2025 04:30 AM |
| 41208 | 15.2 | 3.88 | -5 | 46 | 43 | 47 | 0.10 | -68 | 8 | 05/21/2025 04:15 AM |
| 41207 | 15.2 | 3.88 | -5 | 47 | 43 | 48 | 0.10 | -68 | 7 | 05/21/2025 04:00 AM |
| 41206 | 15.2 | 3.94 | -5 | 47 | 43 | 49 | 0.00 | -68 | 8 | 05/21/2025 03:45 AM |
| 41205 | 15.2 | 3.88 | -5 | 48 | 43 | 48 | 0.00 | -69 | 8 | 05/21/2025 03:30 AM |
| 41204 | 15.3 | 3.86 | -5 | 48 | 43 | 49 | 0.00 | -68 | 8 | 05/21/2025 03:15 AM |
| 41203 | 15.3 | 3.94 | -5 | 49 | 44 | 50 | 0.00 | -68 | 8 | 05/21/2025 03:00 AM |
| 41202 | 15.3 | 3.94 | -5 | 50 | 44 | 49 | 0.00 | -68 | 8 | 05/21/2025 02:45 AM |
| 41201 | 15.3 | 3.84 | -5 | 51 | 44 | 52 | 0.10 | -69 | 8 | 05/21/2025 02:30 AM |
| 41200 | 15.3 | 3.84 | -5 | 52 | 44 | 53 | 0.00 | -69 | 8 | 05/21/2025 02:15 AM |
| 41199 | 15.3 | 3.94 | -5 | 53 | 44 | 54 | 0.10 | -69 | 8 | 05/21/2025 02:00 AM |
| 41198 | 15.3 | 3.85 | -5 | 54 | 43 | 55 | 0.00 | -70 | 8 | 05/21/2025 01:45 AM |
| 41197 | 15.3 | 3.85 | -5 | 55 | 44 | 57 | 0.00 | -69 | 8 | 05/21/2025 01:30 AM |
| 41196 | 15.4 | 3.86 | -5 | 56 | 44 | 59 | 0.00 | -70 | 8 | 05/21/2025 01:15 AM |
| 41195 | 15.4 | 3.86 | -5 | 57 | 44 | 57 | 0.00 | -70 | 8 | 05/21/2025 01:00 AM |
| 41194 | 15.4 | 3.85 | -5 | 58 | 43 | 59 | 0.00 | -70 | 8 | 05/21/2025 12:45 AM |
| 41193 | 15.4 | 3.86 | -5 | 58 | 43 | 60 | 0.00 | -69 | 8 | 05/21/2025 12:30 AM |
| 41192 | 15.4 | 3.95 | -5 | 58 | 44 | 59 | 0.10 | -69 | 7 | 05/21/2025 12:15 AM |
| 41191 | 15.4 | 3.95 | -5 | 59 | 44 | 61 | 0.10 | -68 | 8 | 05/21/2025 12:00 AM |
| 41190 | 15.4 | 3.86 | -5 | 59 | 44 | 61 | 0.00 | -69 | 8 | 05/20/2025 11:45 PM |
| 41189 | 15.4 | 3.88 | -5 | 60 | 44 | 61 | 0.00 | -68 | 8 | 05/20/2025 11:30 PM |
| 41188 | 15.4 | 3.87 | -5 | 60 | 44 | 62 | 0.00 | -69 | 7 | 05/20/2025 11:15 PM |